Wind_Speed
4 3 4 4 4 3 3 3 4 4 4 4 5 5 5 5 5 5 6 6 6 7 7 6 6 5 5 5 5 4 4 4 4 5 5 6 6 6 6 6 7 7 7
4 4 5 5 4 4 4 4 5 5 5 6 6 6 5 6 6 6 6 6 7 7 7 7 7 6 6 6 6 6 5 5 5 6 6 7 7 7 7 7 7 8 8
4 5 5 6 6 5 5 5 6 6 6 6 6 6 6 6 6 6 7 7 7 7 7 7 7 7 7 8 7 7 6 6 6 7 7 8 8 8 8 8 8 8 8
4 4 5 6 6 6 6 6 7 7 7 6 6 6 7 6 6 7 7 7 8 8 8 8 8 8 7 8 7 7 7 7 7 8 9 8 9 9 8 8 8 9 9
4 4 5 5 6 6 6 6 7 7 7 7 7 6 7 8 8 8 8 8 8 8 9 9 9 9 8 8 8 8 8 8 8 8 8 8 8 9 9 9 10 10 10
5 5 5 5 5 6 6 7 7 7 7 7 8 8 8 8 8 9 9 8 8 9 9 9 9 10 10 9 9 9 9 9 9 9 8 8 9 9 9 10 10 11 11
4 5 5 5 6 6 7 7 7 7 7 8 8 8 8 8 8 9 9 9 9 9 10 10 9 10 10 10 9 9 9 10 10 10 9 9 9 10 10 10 11 11 12
4 4 5 5 5 6 7 7 8 8 8 8 8 7 7 7 8 8 9 9 9 10 10 10 10 10 11 11 11 11 10 11 11 11 11 11 10 11 12 12 12 13 13
4 4 5 6 6 6 7 7 7 7 7 7 8 7 7 7 7 8 9 9 10 11 11 11 11 11 12 12 12 12 12 11 12 12 12 12 12 13 13 13 14 14 14
4 4 5 6 6 7 7 7 7 7 7 7 8 8 8 7 8 9 9 10 10 11 11 12 12 13 13 13 13 13 13 13 13 13 13 13 14 14 14 14 14 14 14
4 5 5 6 6 7 7 7 8 8 8 8 8 8 9 9 9 10 10 11 11 11 12 12 13 13 13 14 14 14 14 15 15 14 14 14 14 14 14 14 15 15 15
5 5 5 5 6 7 7 7 7 7 8 8 9 9 9 9 10 10 11 11 12 12 12 13 13 13 13 14 15 15 14 15 15 15 15 15 15 14 14 15 15 15 15
6 5 5 5 6 6 6 6 7 7 8 8 9 9 10 10 10 10 11 11 12 12 12 13 13 13 13 14 15 15 15 15 15 16 16 16 15 15 15 15 15 14 14
6 6 6 6 6 5 6 6 7 7 8 8 9 9 10 10 10 11 11 11 12 12 12 13 13 14 14 14 14 15 15 15 15 16 16 16 15 15 15 15 14 14 14
6 7 7 6 7 7 7 7 7 8 8 8 9 9 10 10 11 11 11 11 12 12 12 12 12 13 13 14 14 14 14 14 14 15 15 15 15 15 15 15 14 14 14
7 7 8 8 8 8 8 8 8 8 8 9 9 10 10 11 11 11 11 12 12 12 12 13 13 13 13 14 14 14 14 14 14 14 15 15 14 14 14 15 14 14 14
7 8 8 9 9 9 9 10 9 9 10 10 10 11 11 11 12 12 12 12 12 12 13 13 13 13 13 14 14 13 13 14 14 14 14 14 14 14 14 14 14 14 14
8 8 9 9 10 10 11 11 10 10 10 11 12 12 12 12 13 13 13 13 13 13 13 13 14 14 14 14 14 14 14 14 14 14 14 14 15 14 14 14 14 14 14
9 9 10 10 10 11 11 11 11 11 11 12 12 13 13 14 14 14 14 14 14 14 14 14 14 14 14 14 15 15 15 15 15 15 15 15 15 15 15 15 15 14 14
10 10 11 11 11 11 11 11 12 12 12 13 14 13 13 14 14 14 14 15 15 15 15 14 14 14 14 14 14 15 15 15 15 15 15 16 15 15 15 15 15 15 15
10 11 11 12 12 11 12 12 12 13 14 14 14 13 13 13 14 14 14 14 14 14 14 14 15 15 14 14 15 15 14 14 15 15 15 16 16 16 15 15 15 15 15
10 11 12 12 12 12 13 13 14 14 14 14 15 14 14 13 13 14 14 15 15 15 15 15 15 15 15 15 14 14 14 13 13 14 15 16 15 16 17 17 16 16 15
11 12 12 13 13 13 13 13 14 14 15 15 15 14 14 14 14 14 15 15 15 15 15 16 15 15 15 15 14 13 13 13 13 14 14 14 14 15 16 17 17 17 16
12 13 13 13 13 14 14 14 14 14 15 15 14 14 15 15 14 14 15 15 15 16 16 16 16 16 15 15 14 14 14 14 15 15 15 14 14 15 16 17 18 18 18
13 13 13 14 14 15 15 15 15 15 15 15 15 14 15 15 15 15 15 15 16 16 16 17 16 16 16 15 15 15 15 15 15 16 15 15 14 15 16 17 18 18 18
14 14 14 15 15 16 16 16 15 15 15 15 15 16 16 16 15 15 15 15 16 17 17 17 17 16 16 16 16 16 16 16 16 16 16 16 15 16 16 16 18 18 18
Wind_Direction
244 248 247 252 258 267 275 266 257 258 253 254 259 257 254 254 254 247 248 246 244 246 246 245 244 241 237 238 237 237 238 243 248 248 243 240 237 236 236 237 242 243 245
261 252 248 249 253 258 263 263 258 262 256 253 253 254 251 253 253 248 250 246 244 248 248 248 251 245 241 243 244 244 247 253 258 255 249 246 243 244 245 246 248 251 249
256 253 253 252 255 256 258 259 259 263 261 256 255 253 253 253 254 255 254 250 248 249 248 247 250 248 247 247 247 249 254 261 263 262 258 253 246 244 245 246 248 251 253
254 248 252 252 255 255 258 260 259 260 256 255 258 260 257 256 258 259 254 252 250 250 251 249 250 250 250 252 250 254 259 264 268 271 267 254 245 244 245 247 250 255 257
261 257 254 252 253 256 257 257 257 258 254 253 257 263 258 255 254 255 251 250 250 252 253 251 252 254 257 258 256 260 262 265 269 272 269 256 246 245 248 251 254 258 261
260 259 259 256 256 258 258 258 258 259 256 255 259 262 263 263 259 258 254 254 255 256 256 256 256 258 260 262 264 264 265 265 267 266 264 256 250 249 251 255 257 260 261
259 262 262 265 260 257 258 259 259 259 259 259 263 267 264 261 260 260 256 257 259 258 257 258 262 263 263 264 267 269 267 266 265 265 263 260 258 256 258 258 259 261 261
264 268 268 269 262 261 262 261 259 257 260 261 264 266 267 262 258 260 256 258 260 259 261 260 266 265 264 264 266 269 271 268 267 268 265 261 261 261 262 262 263 263 262
267 272 272 270 270 265 264 261 262 260 261 262 265 264 265 263 261 262 263 264 266 266 265 264 264 264 264 266 267 268 270 271 270 269 268 265 264 265 265 266 265 263 263
274 279 278 275 275 272 270 269 269 264 265 266 269 268 268 268 268 268 270 270 271 269 267 265 265 265 266 268 269 269 269 270 271 269 269 270 267 265 265 267 266 265 266
281 284 281 280 281 279 277 277 274 273 274 272 273 275 276 275 275 275 271 272 273 272 271 267 266 267 268 269 270 271 270 270 270 268 268 270 268 266 266 268 268 267 266
284 289 291 289 287 286 283 278 273 272 272 272 274 277 278 278 277 278 278 276 277 276 274 272 270 271 271 270 270 270 271 270 270 268 268 269 268 268 268 268 269 266 265
279 281 285 289 287 284 283 282 277 276 276 274 275 276 278 281 280 280 283 283 281 280 279 276 274 273 272 271 271 272 271 271 270 269 268 268 268 267 266 268 269 268 267
280 278 279 279 282 283 285 284 281 280 280 280 276 276 278 281 282 281 282 281 281 280 277 277 277 276 274 273 274 273 272 270 270 268 268 268 268 266 264 265 266 268 269
277 277 275 272 277 279 281 282 280 282 281 280 279 279 281 282 283 284 287 286 287 285 280 279 279 279 277 274 273 274 275 271 271 269 269 269 267 265 264 263 263 265 266
277 276 275 273 278 278 280 281 279 280 280 279 280 280 279 280 280 282 287 291 292 291 286 283 281 279 280 280 277 275 275 272 271 271 269 267 265 263 263 263 262 263 263
283 280 277 275 277 278 278 280 279 280 280 279 281 283 283 281 280 281 283 288 290 289 287 284 281 280 281 281 280 276 275 273 271 270 269 268 266 264 264 262 263 263 263
285 283 280 277 276 276 277 278 280 282 285 283 283 284 285 284 282 282 282 285 287 286 284 284 283 280 282 282 282 280 277 274 273 271 268 269 268 266 263 260 262 263 264
286 286 285 280 278 277 274 274 278 280 283 285 286 287 285 282 282 283 284 285 287 286 284 282 282 281 282 282 283 281 278 274 273 272 267 265 265 264 261 259 261 261 262
280 282 284 284 282 278 275 275 279 284 285 288 289 292 289 284 281 282 284 285 286 287 285 283 283 281 281 280 281 281 277 274 273 272 267 264 261 260 259 257 257 259 260
276 276 280 283 284 281 278 278 280 284 287 291 294 292 288 284 283 283 284 285 284 285 286 286 285 284 282 283 282 281 279 275 272 274 269 267 263 262 260 257 256 257 256
276 278 283 286 286 285 284 282 285 287 289 291 291 291 288 284 283 283 283 283 282 283 284 285 285 285 283 282 282 279 277 277 276 277 272 267 265 264 262 259 258 255 252
283 285 286 286 286 286 285 283 284 285 287 288 288 287 286 286 286 284 283 283 283 283 285 285 285 287 284 282 282 279 276 274 275 276 272 267 263 263 260 259 257 253 253
285 287 288 287 287 285 283 282 284 285 289 289 285 286 287 288 288 286 284 284 284 285 287 288 287 285 283 281 279 279 279 278 277 275 272 268 260 258 256 256 254 252 252
286 286 285 284 287 286 283 283 284 285 286 288 287 287 288 289 289 288 286 285 284 286 287 288 287 284 281 279 278 278 278 279 280 277 275 270 264 260 258 255 253 253 253
286 285 283 284 285 284 282 281 282 282 283 285 288 288 287 288 286 288 287 286 287 287 288 287 285 282 280 279 278 278 278 277 279 277 275 271 266 263 260 256 253 252 251
Height
5872 5872 5872 5872 5872 5872 5872 5872 5872 5872 5872 5872 5872 5872 5871 5871 5871 5871 5871 5871 5871 5871 5871 5871 5872 5871 5871 5871 5871 5871 5871 5871 5871 5871 5871 5871 5871 5871 5871 5872 5872 5872 5872
5871 5871 5871 5871 5871 5871 5871 5871 5871 5871 5871 5871 5871 5870 5870 5870 5870 5870 5870 5870 5870 5870 5870 5870 5871 5870 5870 5871 5870 5870 5870 5870 5870 5870 5870 5870 5870 5870 5870 5871 5871 5871 5871
5870 5870 5870 5870 5870 5870 5870 5870 5870 5870 5870 5870 5870 5869 5869 5869 5869 5869 5869 5869 5869 5869 5869 5869 5869 5869 5869 5869 5869 5869 5869 5869 5869 5868 5868 5867 5868 5868 5869 5869 5870 5870 5870
5869 5869 5869 5869 5869 5869 5869 5869 5869 5869 5869 5869 5869 5868 5868 5868 5868 5868 5868 5868 5868 5868 5868 5868 5868 5868 5868 5868 5868 5868 5868 5868 5867 5866 5864 5864 5865 5866 5867 5868 5868 5868 5868
5868 5868 5868 5868 5868 5868 5868 5868 5868 5868 5868 5868 5867 5867 5867 5867 5867 5867 5867 5867 5867 5867 5867 5867 5867 5866 5866 5866 5866 5866 5866 5866 5866 5864 5862 5862 5863 5864 5865 5866 5866 5866 5867
5867 5866 5866 5866 5866 5866 5866 5867 5867 5866 5866 5866 5866 5866 5866 5866 5865 5865 5865 5865 5865 5865 5865 5865 5865 5865 5865 5865 5864 5864 5864 5864 5864 5863 5862 5861 5862 5863 5863 5864 5864 5864 5865
5865 5865 5865 5865 5865 5865 5865 5865 5865 5865 5865 5865 5865 5865 5864 5864 5864 5864 5864 5864 5864 5864 5863 5863 5863 5863 5863 5863 5863 5863 5862 5862 5862 5861 5861 5861 5861 5861 5861 5862 5862 5862 5862
5864 5864 5864 5864 5864 5864 5864 5864 5864 5864 5863 5863 5863 5863 5863 5862 5862 5862 5862 5862 5862 5862 5861 5861 5861 5861 5861 5861 5861 5861 5860 5860 5860 5860 5860 5859 5859 5859 5859 5859 5859 5859 5859
5863 5863 5862 5862 5862 5862 5862 5862 5862 5862 5862 5862 5862 5861 5861 5861 5860 5860 5860 5860 5860 5860 5859 5859 5859 5859 5859 5858 5858 5858 5858 5858 5858 5857 5857 5857 5857 5857 5857 5857 5857 5857 5857
5861 5861 5861 5861 5861 5861 5861 5860 5860 5860 5860 5860 5860 5860 5859 5859 5859 5858 5858 5858 5858 5857 5857 5857 5856 5856 5856 5856 5855 5855 5855 5855 5855 5855 5855 5855 5855 5854 5854 5854 5854 5854 5854
5860 5860 5860 5860 5859 5859 5859 5859 5859 5859 5859 5858 5858 5858 5858 5857 5857 5857 5856 5856 5855 5855 5854 5854 5853 5853 5853 5853 5852 5852 5852 5852 5852 5852 5852 5852 5851 5851 5851 5851 5851 5851 5851
5859 5859 5859 5858 5858 5858 5858 5857 5857 5857 5857 5857 5856 5856 5856 5855 5855 5854 5854 5853 5853 5852 5852 5851 5851 5850 5850 5850 5849 5849 5849 5849 5848 5848 5848 5848 5848 5848 5848 5848 5848 5848 5848
5858 5857 5857 5857 5857 5856 5856 5856 5855 5855 5855 5855 5854 5854 5853 5853 5853 5852 5851 5851 5850 5850 5849 5848 5847 5847 5847 5846 5846 5845 5845 5845 5845 5845 5845 5845 5845 5845 5845 5845 5845 5845 5845
5856 5856 5856 5855 5855 5855 5854 5854 5854 5853 5853 5853 5852 5852 5851 5851 5850 5850 5849 5848 5847 5847 5846 5845 5844 5844 5843 5843 5842 5842 5842 5841 5841 5841 5841 5841 5841 5841 5841 5842 5842 5842 5841
5855 5854 5854 5854 5853 5853 5853 5852 5852 5851 5851 5851 5850 5850 5849 5848 5848 5847 5846 5846 5845 5844 5843 5842 5842 5841 5840 5839 5839 5838 5838 5838 5837 5837 5837 5837 5838 5838 5838 5838 5838 5838 5838
5853 5853 5852 5852 5852 5851 5851 5850 5850 5849 5849 5848 5848 5847 5847 5846 5845 5844 5844 5843 5842 5841 5840 5839 5838 5837 5837 5836 5835 5835 5834 5834 5834 5834 5834 5834 5834 5834 5834 5834 5835 5835 5835
5851 5850 5850 5850 5849 5849 5849 5848 5847 5847 5846 5845 5845 5844 5844 5843 5842 5841 5840 5840 5838 5837 5836 5836 5835 5834 5833 5832 5832 5831 5831 5831 5830 5830 5830 5830 5830 5830 5830 5831 5831 5831 5831
5848 5848 5848 5847 5847 5846 5846 5845 5845 5844 5843 5842 5842 5841 5840 5839 5839 5838 5837 5836 5835 5834 5833 5832 5831 5830 5829 5829 5828 5827 5827 5827 5827 5827 5826 5826 5826 5827 5827 5827 5827 5828 5828
5846 5845 5845 5844 5844 5844 5843 5842 5842 5841 5840 5839 5838 5837 5836 5835 5835 5834 5833 5832 5831 5830 5829 5828 5827 5826 5826 5825 5824 5823 5823 5823 5823 5822 5822 5822 5822 5822 5823 5823 5824 5824 5824
5843 5842 5842 5841 5841 5840 5840 5839 5838 5838 5837 5836 5835 5834 5832 5831 5831 5830 5830 5829 5828 5827 5826 5825 5824 5823 5822 5821 5820 5819 5818 5818 5818 5818 5818 5818 5818 5818 5818 5819 5820 5820 5821
5840 5839 5838 5838 5837 5837 5836 5836 5835 5834 5833 5833 5832 5830 5829 5828 5827 5826 5826 5825 5824 5823 5822 5821 5820 5818 5818 5816 5816 5815 5814 5813 5813 5813 5813 5812 5813 5813 5814 5815 5815 5816 5817
5837 5836 5835 5834 5834 5833 5833 5832 5831 5830 5829 5828 5828 5827 5825 5824 5823 5822 5821 5820 5820 5819 5818 5817 5816 5814 5813 5812 5811 5810 5810 5809 5808 5808 5808 5808 5808 5809 5809 5810 5811 5812 5812
5833 5832 5832 5831 5830 5829 5829 5828 5827 5827 5825 5825 5824 5823 5822 5820 5819 5818 5817 5816 5815 5814 5813 5812 5811 5810 5808 5808 5807 5806 5806 5805 5805 5804 5803 5803 5803 5804 5805 5805 5806 5807 5808
5829 5829 5828 5827 5826 5825 5825 5824 5824 5823 5822 5820 5819 5818 5817 5816 5815 5814 5813 5812 5811 5810 5809 5808 5806 5805 5804 5803 5803 5802 5801 5801 5800 5800 5799 5798 5798 5799 5800 5800 5801 5802 5803
5825 5824 5823 5823 5822 5821 5820 5820 5819 5818 5818 5816 5815 5814 5813 5812 5811 5810 5809 5808 5807 5806 5804 5803 5801 5800 5800 5799 5798 5798 5797 5796 5795 5795 5794 5794 5794 5794 5794 5795 5796 5796 5797
5821 5820 5819 5819 5818 5817 5816 5815 5815 5814 5813 5812 5811 5811 5810 5808 5807 5806 5804 5803 5802 5801 5799 5798 5797 5796 5795 5794 5793 5793 5792 5791 5790 5789 5788 5788 5788 5789 5789 5790 5790 5791 5792